This demonstration page uses our WeatherBlox Daily Observations layout. Learn more.

Left ArrowRight Arrow

Hourly Observations for November 21, 2018

Temp ( °F °C ) Dew Point ( °F °C ) Humidity (%) Winds ( mph kmh ) Pressure ( in mb ) Visibility ( mi km ) Precip ( " mm )
12:21 am 00:21 Partly Cloudy 32 undefined 27 -2.8 82 82 W 8 13 30.27 1025 10 16 N/A
12:53 am 00:53 Clear 32 undefined 26 -3.3 79 79 WSW 9 15 30.26 1025 10 16 N/A
1:53 am 01:53 Clear 30 -1.1 26 -3.3 85 85 WSW 8 13 30.27 1025 10 16 N/A
2:46 am 02:46 Mostly Cloudy 30 -1.1 26 -3.3 85 85 WSW 8 13 30.30 1026 10 16 N/A
2:53 am 02:53 Mostly Cloudy 30 -1.1 25 -3.9 82 82 WSW 8 13 30.28 1025 10 16 N/A
3:53 am 03:53 Mostly Cloudy 30 -1.1 25 -3.9 82 82 WSW 7 11 30.29 1026 9 14 N/A
4:53 am 04:53 Cloudy 30 -1.1 25 -3.9 82 82 SW 7 11 30.27 1025 9 14 N/A
5:37 am 05:37 Partly Cloudy 30 -1.1 25 -3.9 82 82 N N/A 30.30 1026 8 13 N/A
5:53 am 05:53 Clear 29 -1.7 24 -4.4 82 82 SSW 5 7 30.29 1026 8 13 N/A
6:53 am 06:53 Clear 29 -1.7 24 -4.4 82 82 VRB 3 6 30.29 1026 8 13 N/A
7:53 am 07:53 Sunny with Mist and Fog 29 -1.7 25 -3.9 85 85 SSW 3 6 30.29 1026 6 10 N/A
8:53 am 08:53 Hazy 31 -0.6 26 -3.3 82 82 VRB 7 11 30.32 1027 6 10 N/A
9:53 am 09:53 Sunny 34 1.1 27 -2.8 76 76 SSW 8 13 30.32 1027 8 13 N/A
10:53 am 10:53 Sunny 36 2.2 28 -2.2 73 73 WSW 8 13 30.33 1027 8 13 N/A
11:53 am 11:53 Partly Cloudy 39 3.9 29 -1.7 67 67 SW 8 13 30.32 1027 9 14 N/A
12:06 pm 12:06 Mostly Cloudy 39 3.9 30 -1.1 70 70 WSW 6 9 30.30 1026 9 14 N/A
12:53 pm 12:53 Partly Cloudy 41 5 30 -1.1 65 65 W 7 11 30.30 1026 10 16 N/A
1:53 pm 13:53 Mostly Sunny 43 6.1 31 -0.6 63 63 W 5 7 30.30 1026 10 16 N/A
2:53 pm 14:53 Mostly Sunny 44 6.7 32 undefined 63 63 VRB 3 6 30.29 1026 10 16 N/A
3:53 pm 15:53 Cloudy 44 6.7 33 0.6 65 65 NW 9 15 30.31 1026 10 16 N/A
4:53 pm 16:53 Cloudy 42 5.6 33 0.6 71 71 N 7 11 30.32 1027 8 13 N/A
5:53 pm 17:53 Cloudy 40 4.4 32 undefined 73 73 NNW 7 11 30.35 1028 8 13 N/A
6:48 pm 18:48 Cloudy 39 4 32 undefined 75 75 N 7 11 30.39 1029 8 13 N/A
6:53 pm 18:53 Cloudy 40 4.4 32 undefined 73 73 N 6 9 30.37 1028 8 13 N/A
7:53 pm 19:53 Cloudy 39 3.9 31 -0.6 73 73 N 7 11 30.38 1029 8 13 N/A
8:21 pm 20:21 Mostly Cloudy 38 3.3 31 -0.6 76 76 NNE 7 11 30.39 1029 8 13 N/A
8:53 pm 20:53 Partly Cloudy 37 2.8 31 -0.6 79 79 NNE 6 9 30.39 1029 7 11 N/A
9:53 pm 21:53 Clear 35 1.7 30 -1.1 82 82 N N/A 30.40 1029 8 13 N/A
10:53 pm 22:53 Clear 32 undefined 28 -2.2 85 85 N N/A 30.39 1029 7 11 N/A
11:53 pm 23:53 Clear with Mist and Fog 30 -1.1 27 -2.8 88 88 WNW 3 6 30.39 1029 6 10 N/A

Powered by AerisWeather